[[{"header":{"parameterUnit":"m.s-1","parameterCategory":1,"la1":30.2991,"la2":30.254,"lo1":-89.0895,"lo2":-89.0444,"dy":0.0017,"dx":0.0017,"nx":28,"ny":28,"refTime":"2024-08-11T03:00:00:Z","depth":0,"parameterNumber":2,"parameterNumberName":"U-component_of_WINDS"},"data":[0,0,0,0,0,0,0,0,0,0,0,0,0,0,0,0,0,0,0,0,0,0,0,0,0,0,0,0,0,0,0,0,0,0,0,0,0,0,0,0,0,0,0,0,0,0,0,0,0,0,0,0,0,0,0,0,0,0,0.7983,0.7984,0,0.8087,0.8089,0.809,0.8147,0.8147,0.8148,0.8148,0.8258,0.8261,0.8264,0,0,0,0,0,0,0,0,0,0,0,0,0,0.7837,0.7839,0.7983,0.7985,0.7986,0.8087,0.8089,0.809,0.8147,0.8147,0.8148,0.8148,0.8257,0.826,0.8264,0,0,0,0,0,0,0,0,0,0,0,0,0,0.7917,0.784,0.7983,0.8026,0.8031,0.8087,0.8089,0.8091,0.8147,0.8147,0.8148,0.8148,0.8256,0.826,0.8264,0.8286,0,0,0.8277,0.8279,0,0,0,0,0,0,0,0,0.7912,0.7922,0.8019,0.8024,0.8029,0.8104,0.8078,0.8156,0.8147,0.8103,0.8148,0.8148,0.8207,0.8215,0.8234,0.8291,0.8296,0.8277,0.828,0.8282,0.8283,0,0,0,0,0,0,0,0.7907,0.7918,0.8025,0.802,0.8026,0.8042,0.8053,0.8093,0.8153,0.8107,0.8112,0.8123,0.821,0.823,0.8237,0.8297,0.8277,0.8281,0.8284,0.8285,0.8377,0.8376,0,0,0,0,0,0,0.7894,0.7913,0.8021,0.8028,0.797,0.8044,0.8057,0.808,0.8152,0.8164,0.8123,0.8125,0.8223,0.8233,0.8242,0.8271,0.8282,0.8286,0.8288,0.8377,0.8377,0.8376,0,0,0,0,0,0,0.789,0.7903,0.8017,0.7972,0.7987,0.8046,0.8072,0.8082,0.8102,0.8164,0.8175,0.8132,0.8224,0.8236,0.8274,0.8276,0.8288,0.8291,0.8377,0.8377,0.8377,0.833,0,0,0,0,0,0,0.7886,0.7901,0.7909,0.7971,0.7989,0.8047,0.8072,0.8084,0.8109,0.8113,0.8176,0.8187,0.8225,0.8267,0.8278,0.8282,0.8295,0.8377,0.8377,0.8377,0.8332,0.8328,0.8325,0,0,0,0,0,0.788,0.7893,0.7909,0.7922,0.8,0.8047,0.8057,0.8099,0.8109,0.8118,0.8158,0.8185,0.8274,0.8271,0.8284,0.8288,0.8377,0.8377,0.8377,0.8333,0.8329,0.8326,0,0,0,0,0,0,0.7831,0.7902,0.7921,0.7953,0.7993,0.8056,0.8069,0.8094,0.8133,0.8135,0.8188,0.8201,0.8235,0.8266,0.8261,0.8313,0.8328,0.8331,0.8291,0.8288,0.8285,0.8276,0.8298,0,0,0,0,0,0.7823,0.7854,0.7915,0.7938,0.7957,0.8009,0.8031,0.806,0.8104,0.8121,0.8164,0.8206,0.8244,0.8268,0.8306,0.8337,0.8351,0.8346,0.8343,0.834,0.8341,0.836,0.8358,0.8376,0.8376,0.8376,0,0,0.7809,0.7851,0.7868,0.7929,0.7963,0.7994,0.8023,0.8055,0.8079,0.8127,0.8165,0.8197,0.8249,0.8283,0.83,0.831,0.834,0.834,0.8337,0.834,0.8359,0.8357,0.8356,0.8376,0.8376,0.8376,0,0,0.7798,0.7833,0.7856,0.7889,0.794,0.7975,0.7981,0.804,0.8063,0.8102,0.8138,0.8168,0.8232,0.8266,0.8292,0.8294,0.832,0.8305,0.8289,0.8306,0.8304,0.8303,0.8303,0.8303,0.8306,0.8306,0.8306,0,0.7773,0.7821,0.7865,0.7894,0.792,0.7964,0.7987,0.8018,0.808,0.8097,0.8106,0.8187,0.8225,0.8267,0.8267,0.8287,0.8295,0.8298,0.8301,0.83,0.83,0.8301,0.83,0.8304,0.8304,0.8304,0.8305,0,0.7788,0.782,0.7833,0.7889,0.7917,0.7943,0.7992,0.8015,0.8041,0.8075,0.8114,0.8161,0.8209,0.8221,0.8249,0.8268,0.8272,0.8291,0.8307,0.8295,0.8297,0.8297,0.8301,0.8302,0.8302,0.8303,0,0,0.7748,0.7828,0.7832,0.7858,0.7918,0.7944,0.7973,0.8018,0.8036,0.8078,0.8103,0.8156,0.8173,0.8202,0.8234,0.8249,0.8246,0.8266,0.8268,0.826,0.827,0.8255,0.8255,0.8264,0.8265,0.8265,0.8265,0,0.7745,0.7797,0.7838,0.7875,0.7905,0.7947,0.7972,0.8012,0.8044,0.8076,0.8113,0.8148,0.8169,0.8186,0.8203,0.8243,0.8249,0.8244,0.8289,0.829,0.8273,0.8255,0.824,0.8238,0.8266,0.8267,0.8267,0,0.7748,0.7786,0.7826,0.7882,0.7896,0.7918,0.7962,0.7992,0.8038,0.8061,0.8093,0.8125,0.8158,0.8172,0.8218,0.8213,0.8234,0.8257,0.8258,0.8263,0.8277,0.8259,0.8239,0.8238,0.8268,0.8268,0.8268,0,0.7714,0.7776,0.7807,0.7828,0.7894,0.7908,0.7937,0.7983,0.8008,0.8048,0.8064,0.8108,0.8131,0.8165,0.8208,0.8214,0.8249,0.8267,0.8269,0.8268,0.8274,0.8273,0.8256,0.8289,0.8289,0.8289,0.8289,0,0.7706,0.7728,0.7792,0.7811,0.7838,0.7885,0.791,0.7943,0.7983,0.801,0.805,0.8075,0.8131,0.8163,0.8197,0.823,0.824,0.826,0.8269,0.8256,0.8253,0.827,0.8271,0.8289,0.8289,0.8289,0.8289,0,0.7672,0.7716,0.7752,0.7812,0.7828,0.7844,0.7896,0.7916,0.7951,0.7985,0.7995,0.805,0.8089,0.8136,0.8191,0.8214,0.8243,0.8257,0.8227,0.8232,0.8231,0.823,0.8223,0.8224,0.8257,0.8257,0.8256,0,0.7663,0.7681,0.7742,0.7762,0.7789,0.7822,0.7847,0.7894,0.7919,0.7972,0.7986,0.8028,0.8064,0.8125,0.817,0.8212,0.8227,0.8222,0.8233,0.822,0.8226,0.8223,0.8225,0.8218,0.8217,0.8217,0.8217,0,0.7643,0.7663,0.7697,0.7739,0.7767,0.7802,0.7839,0.7854,0.7909,0.7935,0.7975,0.8002,0.8057,0.8099,0.8146,0.8177,0.8206,0.8212,0.8215,0.8202,0.8183,0.8192,0.8217,0.8212,0.8213,0.8213,0.8213,0.8213,0.7621,0.7638,0.7684,0.772,0.7753,0.7786,0.7808,0.7845,0.7879,0.7927,0.7953,0.7992,0.8038,0.8105,0.8134,0.8166,0.8176,0.818,0.8181,0.8181,0.8177,0.8178,0.8175,0.8175,0.8176,0.8176,0.8176,0,0.7602,0.7633,0.7666,0.7716,0.7744,0.7768,0.7811,0.7833,0.7867,0.7907,0.7941,0.7986,0.8026,0.8074,0.8118,0.8134,0.8148,0.8144,0.8142,0.8149,0.8166,0.8159,0.8131,0.8131,0.8131,0.8131,0.8131,0.8131,0.7595,0.7626,0.7652,0.7699,0.7731,0.7769,0.779,0.7822,0.7854,0.7902,0.7935,0.7966,0.801,0.8056,0.8094,0.8107,0.8121,0.8112,0.8129,0.8144,0.8148,0.8151,0.8145,0.8115,0.8115,0.811,0.811,0.811]},{"header":{"parameterUnit":"m.s-1","parameterCategory":1,"la1":30.2991,"la2":30.254,"lo1":-89.0895,"lo2":-89.0444,"dy":0.0017,"dx":0.0017,"nx":28,"ny":28,"refTime":"2024-08-11T03:00:00:Z","depth":0,"parameterNumber":3,"parameterNumberName":"V-component_of_WINDS"},"data":[0,0,0,0,0,0,0,0,0,0,0,0,0,0,0,0,0,0,0,0,0,0,0,0,0,0,0,0,0,0,0,0,0,0,0,0,0,0,0,0,0,0,0,0,0,0,0,0,0,0,0,0,0,0,0,0,0,0,2.9487,2.9487,0,2.9511,2.9511,2.9512,2.9461,2.946,2.9458,2.9457,2.9481,2.9483,2.9485,0,0,0,0,0,0,0,0,0,0,0,0,0,2.9395,2.9397,2.9487,2.9487,2.9487,2.9511,2.9511,2.9512,2.9462,2.946,2.9458,2.9456,2.948,2.9483,2.9485,0,0,0,0,0,0,0,0,0,0,0,0,0,2.9428,2.9397,2.9487,2.9465,2.9464,2.9511,2.9511,2.9512,2.9462,2.946,2.9457,2.9455,2.9479,2.9482,2.9486,2.9555,0,0,2.9496,2.9497,0,0,0,0,0,0,0,0,2.9427,2.9432,2.9468,2.9467,2.9465,2.9481,2.9488,2.9526,2.9463,2.9463,2.9457,2.9454,2.9483,2.9486,2.9495,2.9556,2.9557,2.9496,2.9498,2.9499,2.95,0,0,0,0,0,0,0,2.9424,2.9431,2.9496,2.9469,2.9467,2.9454,2.9456,2.9495,2.9486,2.9463,2.9459,2.9463,2.9481,2.9492,2.9496,2.9557,2.9496,2.9499,2.9501,2.9502,2.967,2.9673,0,0,0,0,0,0,2.9425,2.9429,2.9495,2.9497,2.9439,2.9457,2.946,2.9478,2.9486,2.9484,2.9465,2.946,2.9488,2.9492,2.9496,2.9573,2.9499,2.9502,2.9504,2.9668,2.9671,2.9673,0,0,0,0,0,0,2.9423,2.9431,2.9495,2.9462,2.9469,2.9462,2.9483,2.948,2.9491,2.9487,2.9485,2.9477,2.9486,2.9492,2.9539,2.9573,2.9504,2.9507,2.9665,2.9669,2.9672,2.973,0,0,0,0,0,0,2.9421,2.9431,2.9458,2.9463,2.9471,2.9538,2.9485,2.9482,2.9497,2.9491,2.9499,2.9498,2.9485,2.9535,2.9543,2.9577,2.9509,2.9661,2.9666,2.9671,2.9725,2.9736,2.9745,0,0,0,0,0,2.9418,2.9474,2.9459,2.9468,2.9504,2.954,2.9545,2.9529,2.95,2.9525,2.9523,2.9497,2.957,2.954,2.9548,2.9584,2.9659,2.9665,2.9671,2.9721,2.9734,2.9744,0,0,0,0,0,0,2.9474,2.9474,2.9458,2.9518,2.9529,2.9532,2.9564,2.9544,2.9563,2.9557,2.9537,2.9539,2.9589,2.9592,2.956,2.9649,2.9609,2.9617,2.9645,2.9657,2.9666,2.9662,2.9512,0,0,0,0,0,2.9493,2.9522,2.9522,2.9575,2.9581,2.9572,2.9587,2.9574,2.9584,2.9589,2.959,2.9601,2.9625,2.9642,2.9665,2.9727,2.9725,2.9755,2.9765,2.9773,2.9778,2.9807,2.9819,2.9692,2.9692,2.9692,0,0,2.9533,2.9537,2.9557,2.9586,2.9593,2.9622,2.9576,2.961,2.9631,2.9594,2.9637,2.9639,2.965,2.9703,2.9727,2.9707,2.9813,2.978,2.9786,2.9787,2.9814,2.9826,2.9836,2.9696,2.9695,2.9695,0,0,2.962,2.9628,2.967,2.9678,2.9689,2.9682,2.9693,2.9698,2.9697,2.9741,2.9712,2.9737,2.9781,2.9788,2.9798,2.9886,2.9862,2.9894,2.9943,2.9971,2.9981,2.999,3.0017,3.0027,2.9901,2.9901,2.9901,0,2.9668,2.9711,2.9695,2.973,2.9741,2.971,2.9751,2.976,2.9778,2.9786,2.9764,2.9816,2.9821,2.9874,2.9895,2.9906,2.9915,2.9891,2.9981,2.999,2.9997,3.0023,3.0034,2.9904,2.9904,2.9904,2.9903,0,2.9767,2.9798,2.9831,2.9847,2.9864,2.9902,2.989,2.9909,2.9894,2.9889,2.9932,2.9938,2.9959,2.9972,2.9959,3.0022,3.0009,2.9985,2.9943,3.0013,3.0036,3.0046,2.9909,2.9908,2.9907,2.9906,0,0,2.9888,2.9894,2.9906,2.9912,2.9921,2.9944,2.998,3.0,3.0014,3.0029,3.0056,3.0093,3.007,3.0081,3.0068,3.0094,3.0157,3.0066,3.0066,3.0079,3.0222,3.0237,3.0249,3.0143,3.0145,3.0147,3.022,0,2.997,3.0031,3.0016,3.0076,3.0101,3.0071,3.0102,3.011,3.0107,3.0128,3.0124,3.0149,3.0119,3.0124,3.0149,3.0145,3.0185,3.014,3.0165,3.0166,3.0159,3.0262,3.0278,3.0347,3.023,3.0231,3.0232,0,3.0073,3.0089,3.0151,3.0152,3.0163,3.0191,3.0206,3.0228,3.0236,3.0231,3.0243,3.0225,3.0259,3.022,3.0265,3.0234,3.0244,3.0244,3.0246,3.0244,3.02,3.0258,3.0369,3.0378,3.0247,3.0246,3.0245,0,3.0149,3.0186,3.0226,3.0233,3.0238,3.0257,3.026,3.0266,3.0278,3.0293,3.0299,3.0319,3.0328,3.0342,3.0329,3.0303,3.0374,3.0335,3.0368,3.0368,3.0381,3.0379,3.049,3.0395,3.0395,3.0395,3.0395,0,3.0239,3.0277,3.026,3.0284,3.0325,3.0308,3.0349,3.0348,3.0353,3.0376,3.0353,3.0375,3.0358,3.0378,3.0369,3.0404,3.041,3.0405,3.0401,3.0405,3.0404,3.0408,3.0401,3.0398,3.0397,3.0397,3.0396,0,3.0328,3.0319,3.036,3.0361,3.0362,3.0392,3.0391,3.0413,3.0408,3.0437,3.0443,3.0435,3.0457,3.0446,3.047,3.0463,3.0508,3.05,3.0504,3.05,3.0532,3.0528,3.0645,3.0658,3.0559,3.056,3.0561,0,3.0384,3.0412,3.0415,3.0428,3.0432,3.0454,3.0466,3.0451,3.0464,3.0474,3.0494,3.0514,3.0529,3.0565,3.0561,3.0578,3.0568,3.0608,3.057,3.0571,3.0563,3.0559,3.056,3.0614,3.0615,3.0616,3.0617,0,3.0482,3.0476,3.0494,3.0509,3.0524,3.0536,3.0546,3.0558,3.0543,3.0559,3.058,3.0592,3.0615,3.0634,3.0648,3.065,3.063,3.0629,3.0637,3.0638,3.0638,3.0634,3.052,3.0626,3.0625,3.0624,3.0624,3.0623,3.0553,3.0575,3.0579,3.0599,3.0605,3.0614,3.0633,3.063,3.0648,3.0665,3.0656,3.068,3.0685,3.0703,3.0707,3.0726,3.0709,3.0722,3.0724,3.0726,3.0728,3.0639,3.0729,3.0729,3.0728,3.0728,3.0728,0,3.0646,3.0647,3.0666,3.0679,3.0694,3.0675,3.0685,3.0698,3.072,3.0727,3.0741,3.0765,3.0783,3.078,3.0796,3.0811,3.0802,3.0815,3.0811,3.0811,3.0744,3.0733,3.0822,3.0822,3.0822,3.0822,3.0822,3.0822,3.0695,3.073,3.0724,3.076,3.0761,3.0784,3.079,3.0798,3.0803,3.083,3.0845,3.0843,3.0845,3.0861,3.0876,3.0874,3.0879,3.0895,3.089,3.0826,3.0817,3.0808,3.0797,3.0898,3.0898,3.0955,3.0956,3.0956]}]]